Location: Beetenbrück
(52.8113°N, 9.5946°E)
Time: 22:46:23
(UTC+00:00)

Cosmos 1980 Rocket - Pass Details

Date: 14 April 2026
Orbit: 826 x 850 km, 71.0° (Epoch: 12 May)

Event Time Altitude Azimuth Distance (km) Brightness Sun altitude
Rises 22:40:37 0° 326° (NW) 3,418 6.4 -26.9°
Reaches altitude 10° 22:43:45 10° 342° (NNW) 2,484 5.6 -27.0°
Maximum altitude 22:47:57 20° 30° (NNE) 1,852 4.5 -27.1°
Drops below altitude 10° 22:52:08 10° 77° (ENE) 2,483 4.7 -27.2°
Enters shadow 22:54:24 - 91° (E) 3,145 5.1 -27.2°
